Private Wetterstation Sandau
Wetterdaten: Jahr 2012
Datum Temp. A. Feuchte A. Luftdruck Regen Wind Richtung Taupunkt Windchill
01.01.2012 8,6 C 94 % 1008,6 hPa 3,6 l/m 8,1 km/h (2 Bft) S-SO 7,6 C 7,3 C
02.01.2012 8,3 C 88 % 1008,9 hPa 4,1 l/m 12,3 km/h (3 Bft) W-SW 6,4 C 6,9 C
03.01.2012 6,9 C 83 % 1004,8 hPa 0,5 l/m 23,2 km/h (4 Bft) S-SW 4,1 C 3,6 C
04.01.2012 5,7 C 77 % 1005,5 hPa 3,1 l/m 20,9 km/h (4 Bft) W-SW 2,0 C 2,0 C
05.01.2012 4,7 C 85 % 981,4 hPa 15,0 l/m 23,4 km/h (4 Bft) W 2,4 C 0,3 C
06.01.2012 2,0 C 85 % 1011,6 hPa 1,0 l/m 14,3 km/h (3 Bft) NW -0,3 C -1,8 C
07.01.2012 5,4 C 89 % 1008,5 hPa 3,1 l/m 11,4 km/h (2 Bft) W-SW 3,7 C 3,0 C
08.01.2012 5,0 C 89 % 1015,6 hPa 1,0 l/m 7,9 km/h (2 Bft) W-NW 3,3 C 3,4 C
09.01.2012 5,6 C 91 % 1022,0 hPa 3,1 l/m 5,3 km/h (1 Bft) W-SW 4,2 C 4,5 C
10.01.2012 5,0 C 87 % 1029,9 hPa 0,0 l/m 11,1 km/h (2 Bft) W-NW 3,0 C 2,5 C
11.01.2012 7,8 C 88 % 1028,0 hPa 0,5 l/m 10,5 km/h (2 Bft) W-SW 5,9 C 6,0 C
12.01.2012 6,8 C 81 % 1014,2 hPa 0,0 l/m 21,6 km/h (4 Bft) W-SW 3,8 C 3,2 C
13.01.2012 3,3 C 83 % 1016,2 hPa 0,5 l/m 15,2 km/h (3 Bft) W-NW 0,6 C -0,4 C
14.01.2012 1,3 C 81 % 1023,0 hPa 0,0 l/m 6,2 km/h (2 Bft) NW -1,7 C -0,5 C
15.01.2012 0,5 C 82 % 1026,8 hPa 0,0 l/m 3,9 km/h (1 Bft) NW -2,3 C 0,0 C
16.01.2012 2,5 C 89 % 1026,7 hPa 0,0 l/m 7,7 km/h (2 Bft) W-NW 0,9 C 0,5 C
17.01.2012 2,2 C 83 % 1028,0 hPa 0,5 l/m 4,8 km/h (1 Bft) W -0,4 C 1,2 C
18.01.2012 2,3 C 82 % 1022,8 hPa 3,6 l/m 10,3 km/h (2 Bft) W-SW -0,6 C -0,2 C
19.01.2012 4,3 C 89 % 1010,2 hPa 6,7 l/m 13,3 km/h (3 Bft) W 2,7 C 1,5 C
20.01.2012 2,5 C 88 % 1008,3 hPa 2,6 l/m 12,2 km/h (2 Bft) W 0,8 C -0,5 C
21.01.2012 3,5 C 89 % 999,5 hPa 4,7 l/m 15,8 km/h (3 Bft) W 1,9 C -0,1 C
22.01.2012 4,2 C 88 % 999,3 hPa 3,6 l/m 12,4 km/h (3 Bft) W 2,3 C 1,3 C
23.01.2012 1,3 C 90 % 1011,3 hPa 1,0 l/m 1,7 km/h (1 Bft) W-SW -0,1 C 1,0 C
24.01.2012 0,5 C 91 % 1021,1 hPa 2,6 l/m 2,2 km/h (1 Bft) O -0,8 C 0,5 C
25.01.2012 -2,3 C 89 % 1026,7 hPa 0,0 l/m 3,1 km/h (1 Bft) O -4,0 C -2,3 C
26.01.2012 -2,2 C 83 % 1025,5 hPa 0,0 l/m 7,8 km/h (2 Bft) O -4,7 C -4,6 C
27.01.2012 -1,9 C 85 % 1027,5 hPa 0,0 l/m 10,4 km/h (2 Bft) O -4,0 C -5,1 C
28.01.2012 -3,7 C 83 % 1032,9 hPa 0,0 l/m 5,4 km/h (1 Bft) O -6,1 C -5,6 C
29.01.2012 -4,9 C 74 % 1034,3 hPa 0,0 l/m 12,2 km/h (2 Bft) O -8,9 C -9,6 C
30.01.2012 -6,0 C 66 % 1034,2 hPa 0,5 l/m 13,1 km/h (3 Bft) O -11,4 C -11,3 C
31.01.2012 -7,6 C 71 % 1035,4 hPa 0,0 l/m 5,5 km/h (1 Bft) O -11,9 C -9,4 C
01.02.2012 -8,6 C 58 % 1038,7 hPa 0,5 l/m 10,4 km/h (2 Bft) O -15,3 C -13,0 C
02.02.2012 -8,5 C 69 % 1037,7 hPa 0,0 l/m 2,7 km/h (1 Bft) O -13,4 C -8,5 C
03.02.2012 -7,3 C 78 % 1037,5 hPa 1,6 l/m 1,5 km/h (1 Bft) O -10,5 C -7,3 C
04.02.2012 -9,5 C 76 % 1039,5 hPa 0,0 l/m 0,7 km/h (0 Bft) O -12,9 C -9,5 C
05.02.2012 -12,1 C 79 % 1039,0 hPa 0,0 l/m 1,3 km/h (1 Bft) O -15,1 C -12,8 C
06.02.2012 -14,1 C 69 % 1040,3 hPa 0,0 l/m 0,6 km/h (0 Bft) O -18,6 C -14,1 C
07.02.2012 -8,1 C 77 % 1042,3 hPa 0,0 l/m 5,3 km/h (1 Bft) O -11,3 C -9,4 C
08.02.2012 -6,4 C 80 % 1041,2 hPa 0,0 l/m 2,7 km/h (1 Bft) O -9,2 C -6,4 C
09.02.2012 -4,4 C 79 % 1037,1 hPa 1,0 l/m 5,9 km/h (2 Bft) O-NO -7,5 C -5,8 C
10.02.2012 -7,4 C 75 % 1042,8 hPa 0,0 l/m 1,7 km/h (1 Bft) O-NO -11,1 C -7,4 C
11.02.2012 -7,1 C 75 % 1037,3 hPa 0,5 l/m 0,0 km/h (0 Bft) O-SO -10,8 C -7,1 C
12.02.2012 -4,2 C 78 % 1028,3 hPa 0,0 l/m 10,6 km/h (2 Bft) W-SW -7,4 C -7,6 C
13.02.2012 -1,4 C 82 % 1019,3 hPa 0,0 l/m 2,5 km/h (1 Bft) W -4,1 C -1,8 C
14.02.2012 0,9 C 87 % 1008,9 hPa 0,5 l/m 10,9 km/h (2 Bft) W-SW -1,0 C -1,5 C
15.02.2012 1,9 C 70 % 1004,9 hPa 1,0 l/m 16,9 km/h (3 Bft) N-NO -3,2 C -2,1 C
16.02.2012 1,9 C 84 % 1019,2 hPa 5,7 l/m 12,8 km/h (3 Bft) W-SW -0,7 C -0,9 C
17.02.2012 4,7 C 86 % 1018,0 hPa 2,1 l/m 11,1 km/h (2 Bft) W 2,6 C 2,2 C
18.02.2012 5,3 C 87 % 1011,1 hPa 1,0 l/m 12,2 km/h (2 Bft) S-SO 3,3 C 2,7 C
19.02.2012 2,6 C 84 % 1015,8 hPa 2,1 l/m 9,2 km/h (2 Bft) W 0,1 C 0,9 C
20.02.2012 1,8 C 79 % 1031,6 hPa 0,5 l/m 6,3 km/h (2 Bft) W-SW -1,5 C -0,1 C
21.02.2012 3,5 C 88 % 1026,8 hPa 3,6 l/m 16,4 km/h (3 Bft) W-SW 1,6 C -0,3 C
22.02.2012 6,0 C 78 % 1022,4 hPa 0,5 l/m 9,0 km/h (2 Bft) W-SW 2,4 C 4,1 C
23.02.2012 8,5 C 85 % 1016,5 hPa 1,0 l/m 16,0 km/h (3 Bft) W-SW 6,0 C 6,8 C
24.02.2012 9,2 C 88 % 1018,0 hPa 3,6 l/m 14,9 km/h (3 Bft) W 7,2 C 7,7 C
25.02.2012 5,8 C 79 % 1017,7 hPa 0,0 l/m 13,5 km/h (3 Bft) W-NW 2,4 C 3,2 C
26.02.2012 3,3 C 63 % 1023,9 hPa 7,3 l/m 4,8 km/h (1 Bft) N-NO -3,5 C 2,9 C
27.02.2012 2,7 C 87 % 1022,6 hPa 3,1 l/m 5,1 km/h (1 Bft) W-SW 0,8 C 1,9 C
28.02.2012 8,9 C 92 % 1017,9 hPa 0,0 l/m 13,1 km/h (3 Bft) W 7,6 C 6,9 C
29.02.2012 10,1 C 91 % 1023,7 hPa 0,0 l/m 5,3 km/h (1 Bft) W-NW 8,7 C 9,8 C
01.03.2012 9,1 C 88 % 1025,1 hPa 0,5 l/m 9,6 km/h (2 Bft) W 7,1 C 7,6 C
02.03.2012 6,0 C 86 % 1029,3 hPa 0,5 l/m 1,6 km/h (1 Bft) NO 3,9 C 6,0 C
03.03.2012 4,5 C 66 % 1027,7 hPa 0,0 l/m 9,2 km/h (2 Bft) O-SO -1,8 C 3,1 C
04.03.2012 4,2 C 64 % 1023,0 hPa 0,0 l/m 6,6 km/h (2 Bft) O-SO -2,0 C 2,5 C
05.03.2012 4,2 C 55 % 1022,8 hPa 0,0 l/m 9,9 km/h (2 Bft) O-SO -4,4 C 2,1 C
06.03.2012 1,7 C 62 % 1030,4 hPa 0,0 l/m 9,9 km/h (2 Bft) O-SO -5,0 C -1,1 C
07.03.2012 4,3 C 64 % 1019,3 hPa 0,5 l/m 6,7 km/h (2 Bft) SO -2,0 C 2,7 C
08.03.2012 4,9 C 74 % 1025,5 hPa 4,1 l/m 3,5 km/h (1 Bft) W-NW 0,5 C 4,6 C
09.03.2012 6,6 C 73 % 1034,7 hPa 0,0 l/m 12,3 km/h (3 Bft) W-SW 2,0 C 4,3 C
10.03.2012 8,9 C 76 % 1029,4 hPa 0,0 l/m 14,5 km/h (3 Bft) W 4,9 C 6,9 C
11.03.2012 7,8 C 83 % 1028,5 hPa 0,0 l/m 8,2 km/h (2 Bft) W-NW 5,0 C 6,4 C
12.03.2012 8,5 C 83 % 1027,7 hPa 0,0 l/m 10,0 km/h (2 Bft) W-NW 5,7 C 7,4 C
13.03.2012 8,1 C 80 % 1030,3 hPa 0,0 l/m 8,5 km/h (2 Bft) W-NW 4,7 C 6,8 C
14.03.2012 7,9 C 77 % 1030,7 hPa 0,0 l/m 7,8 km/h (2 Bft) W 4,2 C 6,9 C
15.03.2012 7,9 C 72 % 1028,0 hPa 0,0 l/m 4,3 km/h (1 Bft) W-SW 3,1 C 7,9 C
16.03.2012 10,1 C 68 % 1019,8 hPa 0,0 l/m 1,7 km/h (1 Bft) SO 4,0 C 10,1 C
17.03.2012 9,3 C 76 % 1016,0 hPa 0,0 l/m 4,6 km/h (1 Bft) W 5,2 C 9,0 C
18.03.2012 9,6 C 76 % 1014,5 hPa 2,6 l/m 15,6 km/h (3 Bft) W-SW 5,5 C 7,8 C
19.03.2012 7,3 C 67 % 1029,1 hPa 0,0 l/m 8,1 km/h (2 Bft) W 1,3 C 6,3 C
20.03.2012 9,8 C 69 % 1033,1 hPa 0,0 l/m 13,2 km/h (3 Bft) W-SW 4,1 C 8,9 C
21.03.2012 12,5 C 74 % 1035,7 hPa 0,5 l/m 4,4 km/h (1 Bft) W 7,9 C 12,4 C
22.03.2012 10,9 C 72 % 1033,1 hPa 0,0 l/m 0,0 km/h (0 Bft) W 5,7 C 10,9 C
23.03.2012 11,8 C 72 % 1028,7 hPa 0,0 l/m 1,0 km/h (0 Bft) N-NO 6,7 C 11,8 C
24.03.2012 10,6 C 69 % 1027,6 hPa 0,5 l/m 2,8 km/h (1 Bft) N-NO 4,9 C 10,6 C
25.03.2012 9,4 C 67 % 1031,3 hPa 0,0 l/m 4,2 km/h (1 Bft) W-NW 3,3 C 9,2 C
26.03.2012 9,4 C 66 % 1034,3 hPa 0,0 l/m 3,9 km/h (1 Bft) O-SO 3,2 C 9,4 C
27.03.2012 11,4 C 72 % 1030,3 hPa 0,5 l/m 4,5 km/h (1 Bft) W-NW 6,4 C 10,9 C
28.03.2012 13,2 C 56 % 1023,3 hPa 0,0 l/m 18,7 km/h (3 Bft) W 3,9 C 12,9 C
29.03.2012 8,4 C 71 % 1013,7 hPa 0,0 l/m 19,3 km/h (3 Bft) W-NW 3,5 C 5,5 C
30.03.2012 8,8 C 73 % 1010,0 hPa 0,5 l/m 15,6 km/h (3 Bft) W-NW 4,2 C 6,3 C
31.03.2012 5,4 C 64 % 1008,5 hPa 1,0 l/m 11,8 km/h (2 Bft) W-NW -0,9 C 3,7 C
01.04.2012 5,7 C 68 % 1011,2 hPa 0,0 l/m 13,1 km/h (3 Bft) W-NW -0,1 C 3,5 C
02.04.2012 5,9 C 69 % 1009,0 hPa 2,1 l/m 4,7 km/h (1 Bft) W-NW 0,5 C 5,1 C
03.04.2012 6,2 C 84 % 1006,7 hPa 3,1 l/m 9,5 km/h (2 Bft) O-NO 3,6 C 4,3 C
04.04.2012 4,3 C 88 % 1012,4 hPa 7,8 l/m 4,8 km/h (1 Bft) O-NO 2,5 C 3,6 C
05.04.2012 5,9 C 73 % 1019,7 hPa 1,0 l/m 2,1 km/h (1 Bft) O-NO 1,4 C 5,5 C
06.04.2012 5,2 C 71 % 1009,7 hPa 0,0 l/m 9,8 km/h (2 Bft) W-SW 0,2 C 3,3 C
07.04.2012 2,8 C 75 % 1005,3 hPa 3,1 l/m 6,6 km/h (2 Bft) W -1,3 C 1,2 C
08.04.2012 3,5 C 54 % 1013,8 hPa 0,0 l/m 2,7 km/h (1 Bft) NW -5,5 C 3,5 C
09.04.2012 6,8 C 71 % 1004,3 hPa 0,5 l/m 9,4 km/h (2 Bft) S 1,8 C 5,4 C
10.04.2012 11,7 C 73 % 997,9 hPa 0,5 l/m 11,6 km/h (2 Bft) S-SO 6,9 C 11,2 C
11.04.2012 9,1 C 83 % 1000,2 hPa 3,1 l/m 2,8 km/h (1 Bft) SO 6,3 C 9,1 C
12.04.2012 9,4 C 76 % 1002,8 hPa 0,5 l/m 2,3 km/h (1 Bft) O-SO 5,3 C 9,4 C
13.04.2012 8,6 C 73 % 1005,2 hPa 3,1 l/m 3,8 km/h (1 Bft) W 4,0 C 8,4 C
14.04.2012 8,7 C 64 % 1007,1 hPa 0,0 l/m 1,3 km/h (1 Bft) O 2,0 C 8,7 C
15.04.2012 9,3 C 56 % 1011,3 hPa 0,0 l/m 9,4 km/h (2 Bft) O-NO 0,3 C 8,2 C
16.04.2012 6,8 C 61 % 1017,2 hPa 0,0 l/m 6,2 km/h (2 Bft) NO -0,7 C 6,0 C
17.04.2012 7,1 C 54 % 1009,8 hPa 0,0 l/m 9,6 km/h (2 Bft) W-SW -1,9 C 5,7 C
18.04.2012 9,1 C 58 % 998,5 hPa 0,0 l/m 2,3 km/h (1 Bft) S-SO 1,0 C 9,1 C
19.04.2012 11,9 C 53 % 995,3 hPa 0,0 l/m 4,1 km/h (1 Bft) O-SO 2,3 C 11,5 C
20.04.2012 12,6 C 60 % 997,1 hPa 0,0 l/m 3,6 km/h (1 Bft) W-SW 4,9 C 12,6 C
21.04.2012 12,7 C 59 % 1001,5 hPa 0,0 l/m 10,3 km/h (2 Bft) S-SO 4,6 C 12,7 C
22.04.2012 10,6 C 65 % 1006,1 hPa 0,5 l/m 3,3 km/h (1 Bft) W-SW 4,2 C 10,6 C
23.04.2012 11,0 C 58 % 1004,7 hPa 0,5 l/m 7,7 km/h (2 Bft) S-SO 2,7 C 11,0 C
24.04.2012 12,2 C 63 % 998,8 hPa 0,5 l/m 6,3 km/h (2 Bft) O 5,2 C 11,8 C
25.04.2012 13,1 C 58 % 1003,6 hPa 0,0 l/m 7,2 km/h (2 Bft) W-SW 4,7 C 13,1 C
26.04.2012 14,6 C 57 % 1008,7 hPa 0,0 l/m 5,2 km/h (1 Bft) S-SO 6,1 C 14,6 C
27.04.2012 16,5 C 56 % 1017,4 hPa 0,0 l/m 5,6 km/h (1 Bft) S 7,5 C 16,5 C
28.04.2012 21,6 C 52 % 1015,1 hPa 0,0 l/m 7,6 km/h (2 Bft) O 11,1 C 21,6 C
29.04.2012 18,9 C 67 % 1008,8 hPa 0,0 l/m 10,9 km/h (2 Bft) O 12,3 C 18,9 C
30.04.2012 17,1 C 61 % 1018,9 hPa 0,0 l/m 4,8 km/h (1 Bft) NO 9,1 C 17,1 C
01.05.2012 18,3 C 61 % 1017,3 hPa 0,0 l/m 7,5 km/h (2 Bft) O-NO 10,4 C 18,3 C
02.05.2012 18,4 C 56 % 1014,5 hPa 0,0 l/m 8,2 km/h (2 Bft) O-NO 9,1 C 18,4 C
03.05.2012 16,4 C 69 % 1009,7 hPa 0,0 l/m 4,5 km/h (1 Bft) W 10,7 C 16,4 C
04.05.2012 16,4 C 65 % 1003,8 hPa 0,5 l/m 3,7 km/h (1 Bft) W-SW 9,6 C 16,4 C
05.05.2012 9,8 C 79 % 1007,6 hPa 4,7 l/m 5,0 km/h (1 Bft) NO 6,2 C 9,2 C
06.05.2012 10,6 C 68 % 1013,8 hPa 2,6 l/m 2,5 km/h (1 Bft) O-NO 4,9 C 10,6 C
07.05.2012 10,8 C 75 % 1019,4 hPa 0,5 l/m 1,6 km/h (1 Bft) O 6,5 C 10,8 C
08.05.2012 15,4 C 63 % 1015,7 hPa 0,5 l/m 4,8 km/h (1 Bft) SO 7,9 C 15,3 C
09.05.2012 17,8 C 70 % 1015,4 hPa 0,0 l/m 9,2 km/h (2 Bft) S-SW 12,1 C 17,8 C
10.05.2012 20,6 C 69 % 1018,3 hPa 0,0 l/m 10,1 km/h (2 Bft) S-SO 14,5 C 20,6 C
11.05.2012 18,9 C 76 % 1019,3 hPa 8,8 l/m 8,4 km/h (2 Bft) W-SW 14,3 C 18,9 C
12.05.2012 10,5 C 60 % 1030,1 hPa 0,0 l/m 9,6 km/h (2 Bft) W-NW 2,8 C 9,9 C
13.05.2012 11,0 C 57 % 1029,4 hPa 0,0 l/m 4,5 km/h (1 Bft) W-NW 2,6 C 10,6 C
14.05.2012 13,9 C 49 % 1019,1 hPa 0,0 l/m 6,5 km/h (2 Bft) S-SO 2,9 C 13,9 C
15.05.2012 12,8 C 64 % 1008,7 hPa 7,8 l/m 4,0 km/h (1 Bft) S-SO 5,5 C 12,8 C
16.05.2012 9,2 C 69 % 1018,1 hPa 1,0 l/m 7,0 km/h (2 Bft) W 3,7 C 8,8 C
17.05.2012 10,7 C 59 % 1021,1 hPa 0,0 l/m 8,6 km/h (2 Bft) W 2,9 C 10,1 C
18.05.2012 13,8 C 50 % 1015,6 hPa 0,0 l/m 4,3 km/h (1 Bft) SO 3,0 C 13,8 C
19.05.2012 18,3 C 61 % 1013,8 hPa 0,0 l/m 4,3 km/h (1 Bft) O 10,3 C 18,3 C
20.05.2012 21,8 C 46 % 1008,9 hPa 0,0 l/m 7,7 km/h (2 Bft) O 9,0 C 21,8 C
21.05.2012 23,1 C 51 % 1003,9 hPa 0,0 l/m 7,6 km/h (2 Bft) O 12,1 C 23,1 C
22.05.2012 24,7 C 55 % 1010,9 hPa 0,0 l/m 6,0 km/h (2 Bft) O 14,5 C 24,7 C
23.05.2012 22,8 C 57 % 1022,6 hPa 0,0 l/m 4,5 km/h (1 Bft) O-NO 13,4 C 22,8 C
24.05.2012 19,3 C 39 % 1029,6 hPa 0,0 l/m 12,6 km/h (3 Bft) O-NO 4,7 C 19,3 C
25.05.2012 18,7 C 36 % 1027,8 hPa 0,0 l/m 8,2 km/h (2 Bft) O-NO 2,9 C 18,7 C
26.05.2012 20,0 C 39 % 1024,4 hPa 0,5 l/m 5,1 km/h (1 Bft) O-NO 4,7 C 20,0 C
27.05.2012 20,7 C 45 % 1019,8 hPa 0,0 l/m 4,2 km/h (1 Bft) O-NO 7,9 C 20,7 C
28.05.2012 22,9 C 44 % 1013,4 hPa 0,0 l/m 0,9 km/h (0 Bft) O-NO 9,9 C 22,9 C
29.05.2012 17,4 C 50 % 1013,0 hPa 0,0 l/m 5,4 km/h (1 Bft) W-NW 6,5 C 17,4 C
30.05.2012 14,6 C 59 % 1017,5 hPa 0,0 l/m 5,2 km/h (1 Bft) W-NW 6,5 C 14,6 C
31.05.2012 15,3 C 73 % 1013,6 hPa 16,1 l/m 4,1 km/h (1 Bft) W-SW 10,1 C 15,3 C
01.06.2012 12,3 C 62 % 1013,6 hPa 2,6 l/m 8,4 km/h (2 Bft) W-NW 5,0 C 12,3 C
02.06.2012 13,1 C 57 % 1014,2 hPa 0,0 l/m 7,0 km/h (2 Bft) W-NW 4,6 C 13,1 C
03.06.2012 11,3 C 72 % 1009,6 hPa 4,7 l/m 6,1 km/h (2 Bft) W-NW 6,2 C 11,1 C
04.06.2012 12,9 C 68 % 1010,5 hPa 2,1 l/m 6,2 km/h (2 Bft) W 6,7 C 12,9 C
05.06.2012 13,3 C 65 % 1016,7 hPa 3,6 l/m 6,9 km/h (2 Bft) W-NW 6,6 C 13,3 C
06.06.2012 12,8 C 72 % 1010,1 hPa 0,5 l/m 4,8 km/h (1 Bft) SO 7,5 C 12,8 C
07.06.2012 16,7 C 80 % 1006,4 hPa 0,5 l/m 5,0 km/h (1 Bft) S-SO 13,1 C 16,7 C
08.06.2012 20,1 C 62 % 1007,1 hPa 1,0 l/m 5,5 km/h (1 Bft) W-SW 12,3 C 20,1 C
09.06.2012 18,6 C 49 % 1012,6 hPa 0,0 l/m 5,7 km/h (1 Bft) W-SW 7,3 C 18,6 C
10.06.2012 19,0 C 50 % 1010,4 hPa 0,0 l/m 2,9 km/h (1 Bft) W-SW 8,1 C 19,0 C
11.06.2012 18,5 C 56 % 1004,9 hPa 0,0 l/m 4,0 km/h (1 Bft) O 9,3 C 18,5 C
12.06.2012 17,3 C 76 % 1003,6 hPa 36,3 l/m 3,0 km/h (1 Bft) O 12,9 C 17,3 C
13.06.2012 15,8 C 65 % 1013,2 hPa 0,0 l/m 3,2 km/h (1 Bft) W-NW 9,1 C 15,8 C
14.06.2012 16,0 C 60 % 1020,2 hPa 0,0 l/m 3,3 km/h (1 Bft) W 8,0 C 16,0 C
15.06.2012 18,7 C 65 % 1017,2 hPa 0,0 l/m 3,4 km/h (1 Bft) SO 11,7 C 18,7 C
16.06.2012 18,2 C 78 % 1015,6 hPa 2,6 l/m 7,1 km/h (2 Bft) S-SO 14,2 C 18,2 C
17.06.2012 19,7 C 59 % 1021,4 hPa 0,0 l/m 2,9 km/h (1 Bft) W-SW 11,3 C 19,7 C
18.06.2012 21,7 C 57 % 1016,3 hPa 0,0 l/m 9,8 km/h (2 Bft) O 12,4 C 21,7 C
19.06.2012 20,5 C 60 % 1020,8 hPa 0,5 l/m 3,4 km/h (1 Bft) O-NO 12,2 C 20,5 C
20.06.2012 15,5 C 89 % 1016,5 hPa 9,8 l/m 5,7 km/h (1 Bft) O-NO 13,6 C 15,5 C
21.06.2012 16,3 C 82 % 1013,5 hPa 0,0 l/m 3,7 km/h (1 Bft) O-NO 13,2 C 16,3 C
22.06.2012 20,2 C 58 % 1017,3 hPa 0,0 l/m 5,1 km/h (1 Bft) W-SW 11,1 C 20,2 C
23.06.2012 19,2 C 57 % 1022,2 hPa 0,0 l/m 6,3 km/h (2 Bft) W-SW 10,3 C 19,2 C
24.06.2012 16,6 C 71 % 1010,8 hPa 5,2 l/m 11,0 km/h (2 Bft) S-SW 11,0 C 16,6 C
25.06.2012 14,2 C 77 % 1011,0 hPa 4,7 l/m 17,0 km/h (3 Bft) W 10,2 C 14,2 C
26.06.2012 14,8 C 69 % 1018,8 hPa 0,0 l/m 14,7 km/h (3 Bft) W-NW 9,2 C 14,8 C
27.06.2012 15,1 C 84 % 1016,7 hPa 2,6 l/m 1,7 km/h (1 Bft) W-SW 12,3 C 15,1 C
28.06.2012 20,4 C 75 % 1012,8 hPa 0,0 l/m 3,9 km/h (1 Bft) O 15,6 C 20,4 C
29.06.2012 23,6 C 73 % 1009,9 hPa 7,3 l/m 3,6 km/h (1 Bft) S-SO 18,0 C 23,6 C
30.06.2012 24,0 C 62 % 1013,3 hPa 0,5 l/m 1,6 km/h (1 Bft) W 15,8 C 24,0 C
01.07.2012 21,2 C 71 % 1016,0 hPa 21,8 l/m 5,6 km/h (1 Bft) W 15,5 C 21,2 C
02.07.2012 18,3 C 70 % 1021,4 hPa 2,6 l/m 12,2 km/h (2 Bft) W 12,3 C 18,3 C
03.07.2012 20,0 C 72 % 1018,3 hPa 0,0 l/m 1,6 km/h (1 Bft) N-NO 14,7 C 20,0 C
04.07.2012 22,1 C 68 % 1016,2 hPa 0,0 l/m 5,4 km/h (1 Bft) O-NO 15,7 C 22,1 C
05.07.2012 22,3 C 76 % 1012,6 hPa 0,5 l/m 9,4 km/h (2 Bft) O-NO 17,7 C 22,3 C
06.07.2012 23,3 C 75 % 1011,3 hPa 0,0 l/m 2,9 km/h (1 Bft) NO 18,4 C 23,3 C
07.07.2012 21,1 C 72 % 1013,3 hPa 0,5 l/m 2,5 km/h (1 Bft) N 15,8 C 21,1 C
08.07.2012 24,0 C 58 % 1009,2 hPa 3,1 l/m 10,6 km/h (2 Bft) SO 15,2 C 24,0 C
09.07.2012 21,1 C 60 % 1010,5 hPa 0,0 l/m 7,0 km/h (2 Bft) W-SW 12,8 C 21,1 C
10.07.2012 20,9 C 60 % 1012,1 hPa 0,0 l/m 8,3 km/h (2 Bft) W-SW 12,7 C 20,9 C
11.07.2012 17,5 C 72 % 1011,2 hPa 0,0 l/m 6,6 km/h (2 Bft) W-SW 12,0 C 17,5 C
12.07.2012 14,8 C 75 % 1012,0 hPa 1,6 l/m 12,6 km/h (3 Bft) W-SW 10,4 C 14,8 C
13.07.2012 15,5 C 85 % 1006,5 hPa 5,7 l/m 3,4 km/h (1 Bft) S-SO 12,9 C 15,5 C
14.07.2012 16,3 C 80 % 1003,9 hPa 9,8 l/m 13,4 km/h (3 Bft) W-SW 12,8 C 16,3 C
15.07.2012 17,1 C 68 % 1012,7 hPa 4,1 l/m 3,4 km/h (1 Bft) W-SW 10,8 C 17,1 C
16.07.2012 16,2 C 74 % 1019,5 hPa 6,2 l/m 6,1 km/h (2 Bft) W-SW 11,4 C 16,2 C
17.07.2012 16,9 C 73 % 1017,0 hPa 5,7 l/m 4,2 km/h (1 Bft) W-NW 11,9 C 16,9 C
18.07.2012 17,6 C 82 % 1011,0 hPa 13,5 l/m 5,4 km/h (1 Bft) W-SW 14,3 C 17,6 C
19.07.2012 15,2 C 83 % 1005,8 hPa 12,4 l/m 13,5 km/h (3 Bft) W-SW 12,3 C 15,2 C
20.07.2012 16,9 C 61 % 1014,1 hPa 0,0 l/m 6,8 km/h (2 Bft) W 9,2 C 16,9 C
21.07.2012 14,7 C 67 % 1020,6 hPa 0,0 l/m 5,5 km/h (1 Bft) W-NW 8,4 C 14,7 C
22.07.2012 18,1 C 58 % 1028,1 hPa 0,0 l/m 3,9 km/h (1 Bft) NW 9,6 C 18,1 C
23.07.2012 21,0 C 50 % 1027,4 hPa 0,0 l/m 2,2 km/h (1 Bft) S-SO 9,5 C 21,0 C
25.07.2012 26,3 C 61 % 1014,2 hPa 0,0 l/m 2,2 km/h (1 Bft) N 18,2 C 26,3 C
26.07.2012 26,0 C 54 % 1016,8 hPa 0,5 l/m 5,7 km/h (1 Bft) N-NO 15,5 C 26,0 C
27.07.2012 21,3 C 63 % 1017,1 hPa 0,0 l/m 4,0 km/h (1 Bft) SO 14,0 C 21,3 C
28.07.2012 20,8 C 74 % 1009,6 hPa 7,8 l/m 1,3 km/h (1 Bft) N-NO 15,9 C 20,8 C
29.07.2012 17,9 C 86 % 1009,8 hPa 4,7 l/m 5,4 km/h (1 Bft) O-NO 15,5 C 17,9 C
30.07.2012 17,6 C 63 % 1016,8 hPa 0,5 l/m 2,6 km/h (1 Bft) W-SW 10,4 C 17,6 C
31.07.2012 18,6 C 60 % 1018,9 hPa 0,0 l/m 0,8 km/h (0 Bft) W-SW 10,4 C 18,6 C
01.08.2012 22,1 C 56 % 1016,7 hPa 0,0 l/m 4,5 km/h (1 Bft) SO 12,6 C 22,1 C
02.08.2012 22,6 C 65 % 1013,0 hPa 1,6 l/m 5,1 km/h (1 Bft) O-SO 15,5 C 22,6 C
03.08.2012 21,0 C 68 % 1016,3 hPa 0,0 l/m 0,8 km/h (0 Bft) S 14,6 C 21,0 C
04.08.2012 21,4 C 64 % 1014,3 hPa 0,0 l/m 2,8 km/h (1 Bft) O-SO 14,2 C 21,4 C
05.08.2012 19,0 C 85 % 1011,1 hPa 2,6 l/m 2,1 km/h (1 Bft) O-NO 16,4 C 19,0 C
06.08.2012 20,2 C 71 % 1010,2 hPa 10,4 l/m 8,8 km/h (2 Bft) W-SW 14,5 C 20,2 C
07.08.2012 18,6 C 68 % 1018,3 hPa 0,0 l/m 18,8 km/h (3 Bft) W-SW 12,4 C 18,6 C
08.08.2012 17,7 C 72 % 1022,0 hPa 0,0 l/m 8,6 km/h (2 Bft) W 12,3 C 17,7 C
09.08.2012 17,0 C 70 % 1024,3 hPa 0,0 l/m 3,8 km/h (1 Bft) W-NW 11,3 C 17,0 C
10.08.2012 15,4 C 76 % 1024,7 hPa 0,0 l/m 4,8 km/h (1 Bft) W-NW 10,9 C 15,4 C
11.08.2012 18,0 C 61 % 1023,7 hPa 0,0 l/m 3,9 km/h (1 Bft) O-NO 10,1 C 18,0 C
12.08.2012 17,6 C 56 % 1020,5 hPa 0,0 l/m 4,5 km/h (1 Bft) O 8,2 C 17,6 C
13.08.2012 17,7 C 60 % 1019,0 hPa 0,0 l/m 4,8 km/h (1 Bft) O-NO 9,3 C 17,7 C
14.08.2012 18,8 C 60 % 1018,0 hPa 0,0 l/m 1,5 km/h (1 Bft) O-NO 10,4 C 18,8 C
15.08.2012 19,0 C 60 % 1016,4 hPa 0,0 l/m 3,3 km/h (1 Bft) O-SO 10,6 C 19,0 C
16.08.2012 16,8 C 85 % 1018,9 hPa 2,1 l/m 1,5 km/h (1 Bft) O-SO 14,2 C 16,8 C
17.08.2012 19,8 C 68 % 1022,1 hPa 0,5 l/m 0,8 km/h (0 Bft) SO 13,3 C 19,8 C
18.08.2012 23,0 C 57 % 1021,9 hPa 0,0 l/m 3,8 km/h (1 Bft) SO 13,2 C 23,0 C
19.08.2012 27,2 C 49 % 1017,5 hPa 0,0 l/m 4,6 km/h (1 Bft) SO 15,0 C 27,2 C
20.08.2012 25,8 C 61 % 1016,9 hPa 1,0 l/m 1,9 km/h (1 Bft) N-NO 17,7 C 25,8 C
21.08.2012 22,4 C 67 % 1016,8 hPa 1,0 l/m 2,0 km/h (1 Bft) O-NO 15,7 C 22,4 C
22.08.2012 20,5 C 65 % 1014,1 hPa 1,6 l/m 4,7 km/h (1 Bft) W 13,2 C 20,5 C
23.08.2012 19,5 C 58 % 1014,4 hPa 0,0 l/m 3,6 km/h (1 Bft) W-SW 10,6 C 19,5 C
24.08.2012 16,4 C 79 % 1008,1 hPa 0,5 l/m 1,7 km/h (1 Bft) O-NO 12,7 C 16,4 C
25.08.2012 19,9 C 71 % 1007,1 hPa 0,5 l/m 4,8 km/h (1 Bft) W-SW 14,1 C 19,9 C
26.08.2012 17,7 C 78 % 1009,6 hPa 1,0 l/m 14,4 km/h (3 Bft) W-SW 13,4 C 17,7 C
27.08.2012 16,6 C 64 % 1020,6 hPa 0,0 l/m 5,7 km/h (1 Bft) W-NW 9,3 C 16,6 C
28.08.2012 18,6 C 64 % 1017,4 hPa 0,0 l/m 2,2 km/h (1 Bft) O-SO 11,3 C 18,6 C
29.08.2012 21,0 C 63 % 1017,9 hPa 0,0 l/m 3,0 km/h (1 Bft) O-SO 13,1 C 21,0 C
30.08.2012 18,8 C 80 % 1015,6 hPa 3,6 l/m 2,3 km/h (1 Bft) O-SO 15,2 C 18,8 C
31.08.2012 16,4 C 80 % 1018,0 hPa 4,7 l/m 2,0 km/h (1 Bft) N-NO 12,7 C 16,4 C
01.09.2012 14,6 C 74 % 1025,5 hPa 0,0 l/m 3,1 km/h (1 Bft) NW 9,8 C 14,6 C
02.09.2012 15,6 C 68 % 1025,3 hPa 0,0 l/m 1,5 km/h (1 Bft) S-SW 9,4 C 15,6 C
03.09.2012 16,0 C 75 % 1024,3 hPa 0,0 l/m 1,3 km/h (1 Bft) N-NO 11,5 C 16,0 C
04.09.2012 18,2 C 68 % 1021,3 hPa 0,0 l/m 2,8 km/h (1 Bft) W-NW 11,8 C 18,2 C
05.09.2012 17,4 C 65 % 1020,8 hPa 0,0 l/m 8,1 km/h (2 Bft) W-NW 10,4 C 17,4 C
06.09.2012 14,9 C 61 % 1024,6 hPa 0,0 l/m 8,8 km/h (2 Bft) W-NW 7,0 C 14,9 C
07.09.2012 16,1 C 77 % 1020,7 hPa 1,6 l/m 6,5 km/h (2 Bft) W-SW 11,9 C 16,1 C
08.09.2012 16,9 C 81 % 1020,0 hPa 5,2 l/m 3,6 km/h (1 Bft) W-NW 13,7 C 16,9 C
09.09.2012 19,1 C 76 % 1017,4 hPa 0,5 l/m 6,8 km/h (2 Bft) SO 14,4 C 19,1 C
10.09.2012 21,3 C 57 % 1014,0 hPa 0,0 l/m 2,4 km/h (1 Bft) S-SO 11,3 C 21,3 C
11.09.2012 17,3 C 81 % 1010,8 hPa 16,6 l/m 6,2 km/h (2 Bft) W-SW 13,8 C 17,3 C
12.09.2012 13,7 C 73 % 1011,8 hPa 0,0 l/m 10,3 km/h (2 Bft) W 8,6 C 13,7 C
13.09.2012 13,0 C 72 % 1016,2 hPa 0,0 l/m 2,9 km/h (1 Bft) W-NW 7,9 C 13,0 C
14.09.2012 14,3 C 78 % 1009,3 hPa 0,0 l/m 25,0 km/h (4 Bft) W-SW 10,2 C 14,3 C
15.09.2012 15,1 C 76 % 1015,2 hPa 0,0 l/m 9,2 km/h (2 Bft) W-SW 10,7 C 15,1 C
16.09.2012 15,9 C 67 % 1015,0 hPa 0,5 l/m 4,3 km/h (1 Bft) W-SW 9,4 C 15,9 C
17.09.2012 15,8 C 73 % 1013,7 hPa 0,0 l/m 5,4 km/h (1 Bft) W-SW 10,8 C 15,8 C
18.09.2012 16,0 C 75 % 1010,4 hPa 0,5 l/m 5,7 km/h (1 Bft) W-SW 11,4 C 16,0 C
19.09.2012 10,6 C 71 % 1017,0 hPa 0,0 l/m 6,2 km/h (2 Bft) W-NW 5,3 C 9,9 C
20.09.2012 11,1 C 66 % 1022,3 hPa 0,0 l/m 5,3 km/h (1 Bft) W-SW 4,6 C 10,7 C
21.09.2012 13,2 C 58 % 1016,1 hPa 0,0 l/m 5,3 km/h (1 Bft) S-SO 4,7 C 12,9 C
22.09.2012 10,3 C 72 % 1013,1 hPa 0,0 l/m 5,0 km/h (1 Bft) W 5,4 C 10,2 C
23.09.2012 10,8 C 67 % 1016,5 hPa 0,0 l/m 1,8 km/h (1 Bft) W 4,4 C 10,8 C
24.09.2012 12,7 C 82 % 1000,9 hPa 6,7 l/m 4,6 km/h (1 Bft) SO 9,6 C 12,6 C
25.09.2012 15,2 C 76 % 1002,5 hPa 1,0 l/m 7,6 km/h (2 Bft) S 10,7 C 15,2 C
26.09.2012 15,4 C 81 % 1002,8 hPa 0,0 l/m 1,6 km/h (1 Bft) SO 12,0 C 15,4 C
27.09.2012 13,7 C 80 % 1006,7 hPa 8,3 l/m 8,2 km/h (2 Bft) W-SW 10,1 C 13,7 C
28.09.2012 13,3 C 74 % 1016,3 hPa 0,0 l/m 8,4 km/h (2 Bft) W-SW 8,6 C 13,3 C
29.09.2012 12,0 C 78 % 1015,3 hPa 0,0 l/m 13,4 km/h (3 Bft) W-SW 8,0 C 12,0 C
30.09.2012 10,8 C 72 % 1021,1 hPa 0,0 l/m 4,2 km/h (1 Bft) W-SW 5,7 C 10,8 C
01.10.2012 10,7 C 73 % 1016,8 hPa 0,0 l/m 1,5 km/h (1 Bft) S-SO 5,7 C 10,7 C
02.10.2012 12,8 C 75 % 1015,8 hPa 0,0 l/m 4,2 km/h (1 Bft) S-SO 8,2 C 12,6 C
03.10.2012 14,5 C 71 % 1011,4 hPa 0,0 l/m 5,3 km/h (1 Bft) S-SW 9,1 C 14,5 C
04.10.2012 11,4 C 87 % 1007,8 hPa 20,7 l/m 19,5 km/h (3 Bft) S-SW 9,3 C 9,6 C
05.10.2012 11,4 C 83 % 1008,4 hPa 3,1 l/m 11,6 km/h (2 Bft) W-SW 8,6 C 11,2 C
06.10.2012 9,5 C 90 % 1010,1 hPa 17,1 l/m 5,8 km/h (2 Bft) W-SW 7,9 C 9,0 C
07.10.2012 9,6 C 82 % 1016,4 hPa 0,5 l/m 5,8 km/h (2 Bft) W-SW 6,5 C 9,6 C
08.10.2012 8,9 C 81 % 1016,8 hPa 0,0 l/m 5,2 km/h (1 Bft) W-SW 5,7 C 8,9 C
09.10.2012 8,4 C 77 % 1011,5 hPa 0,0 l/m 11,6 km/h (2 Bft) W 4,3 C 7,1 C
10.10.2012 8,2 C 84 % 1014,0 hPa 1,6 l/m 3,7 km/h (1 Bft) W 5,6 C 8,2 C
11.10.2012 7,9 C 85 % 1014,9 hPa 1,0 l/m 0,8 km/h (0 Bft) W 5,4 C 7,9 C
12.10.2012 8,4 C 87 % 1009,2 hPa 5,2 l/m 6,4 km/h (2 Bft) SO 6,3 C 7,8 C
13.10.2012 9,5 C 79 % 1009,8 hPa 0,0 l/m 6,5 km/h (2 Bft) W-SW 5,8 C 9,2 C
14.10.2012 9,2 C 78 % 1002,1 hPa 2,1 l/m 4,5 km/h (1 Bft) SO 5,4 C 9,2 C
15.10.2012 8,1 C 87 % 1005,2 hPa 3,6 l/m 9,4 km/h (2 Bft) W-SW 6,1 C 6,7 C
16.10.2012 9,2 C 80 % 1010,0 hPa 0,0 l/m 6,8 km/h (2 Bft) S-SW 5,8 C 9,2 C
17.10.2012 10,8 C 79 % 1012,3 hPa 0,0 l/m 5,5 km/h (1 Bft) S 7,2 C 10,8 C
18.10.2012 14,6 C 72 % 1013,6 hPa 0,0 l/m 3,1 km/h (1 Bft) S-SO 9,3 C 14,6 C
19.10.2012 14,0 C 80 % 1015,0 hPa 0,0 l/m 2,2 km/h (1 Bft) SO 10,3 C 14,0 C
20.10.2012 14,2 C 82 % 1018,3 hPa 0,0 l/m 1,3 km/h (1 Bft) SO 10,9 C 14,2 C
21.10.2012 14,8 C 88 % 1020,9 hPa 0,0 l/m 3,8 km/h (1 Bft) O-SO 12,7 C 14,8 C
22.10.2012 12,9 C 91 % 1025,9 hPa 0,0 l/m 4,1 km/h (1 Bft) O-SO 11,4 C 12,9 C
23.10.2012 11,7 C 90 % 1026,9 hPa 0,0 l/m 1,6 km/h (1 Bft) O-SO 10,2 C 11,7 C
24.10.2012 11,5 C 91 % 1020,6 hPa 0,0 l/m 1,6 km/h (1 Bft) W-NW 10,0 C 11,5 C
25.10.2012 8,8 C 83 % 1011,5 hPa 0,0 l/m 5,7 km/h (1 Bft) W-NW 5,9 C 8,3 C
26.10.2012 3,2 C 68 % 1011,3 hPa 0,0 l/m 1,5 km/h (1 Bft) SO -2,5 C 3,2 C
27.10.2012 2,5 C 77 % 1007,2 hPa 75,1 l/m 4,2 km/h (1 Bft) NO -1,3 C 2,0 C
28.10.2012 1,0 C 79 % 1016,3 hPa 0,0 l/m 2,0 km/h (1 Bft) NW -2,4 C 1,0 C
29.10.2012 3,1 C 73 % 1011,5 hPa 0,5 l/m 8,4 km/h (2 Bft) S-SO -1,5 C 0,8 C
30.10.2012 4,3 C 89 % 1003,2 hPa 8,3 l/m 3,9 km/h (1 Bft) S-SW 2,6 C 3,8 C
31.10.2012 4,9 C 88 % 1002,4 hPa 0,5 l/m 4,2 km/h (1 Bft) S-SO 3,1 C 4,2 C
01.11.2012 6,3 C 89 % 989,7 hPa 0,5 l/m 10,7 km/h (2 Bft) SO 4,6 C 4,2 C
02.11.2012 6,8 C 76 % 999,0 hPa 1,0 l/m 10,1 km/h (2 Bft) S-SW 2,8 C 4,9 C
03.11.2012 6,5 C 86 % 1001,0 hPa 3,1 l/m 4,3 km/h (1 Bft) W-SW 4,3 C 5,9 C
04.11.2012 6,8 C 89 % 1000,8 hPa 2,1 l/m 3,5 km/h (1 Bft) SO 5,0 C 6,8 C
05.11.2012 6,9 C 84 % 1000,5 hPa 0,5 l/m 10,0 km/h (2 Bft) W-SW 4,4 C 5,4 C
06.11.2012 6,2 C 83 % 1012,1 hPa 1,0 l/m 14,9 km/h (3 Bft) W 3,4 C 3,7 C
07.11.2012 9,7 C 86 % 1017,3 hPa 2,6 l/m 13,1 km/h (3 Bft) W 7,4 C 8,1 C
08.11.2012 9,0 C 84 % 1014,6 hPa 0,0 l/m 10,7 km/h (2 Bft) W-SW 6,3 C 7,3 C
09.11.2012 8,7 C 84 % 1015,8 hPa 0,0 l/m 7,2 km/h (2 Bft) W-SW 6,2 C 7,8 C
10.11.2012 7,3 C 87 % 1004,6 hPa 3,1 l/m 3,3 km/h (1 Bft) SO 5,2 C 6,9 C
11.11.2012 8,4 C 87 % 1012,9 hPa 0,0 l/m 3,4 km/h (1 Bft) W-SW 6,2 C 8,1 C
12.11.2012 6,9 C 85 % 1026,1 hPa 0,0 l/m 8,8 km/h (2 Bft) W-SW 4,6 C 5,7 C
13.11.2012 4,2 C 84 % 1033,1 hPa 0,0 l/m 1,8 km/h (1 Bft) S-SO 1,7 C 4,0 C
14.11.2012 2,2 C 88 % 1030,8 hPa 0,0 l/m 0,6 km/h (0 Bft) O-SO 0,4 C 2,2 C
15.11.2012 -1,5 C 93 % 1025,5 hPa 0,0 l/m 0,0 km/h (0 Bft) SO -2,6 C -1,5 C
16.11.2012 0,8 C 91 % 1020,9 hPa 0,0 l/m 2,5 km/h (1 Bft) S-SO -0,6 C 0,8 C
17.11.2012 2,4 C 89 % 1012,9 hPa 0,0 l/m 3,7 km/h (1 Bft) SO 0,7 C 1,5 C
18.11.2012 5,2 C 93 % 1014,6 hPa 1,0 l/m 2,8 km/h (1 Bft) S-SW 4,2 C 4,7 C
19.11.2012 5,0 C 94 % 1020,6 hPa 0,5 l/m 4,3 km/h (1 Bft) SO 4,1 C 4,2 C
20.11.2012 5,6 C 94 % 1021,6 hPa 0,0 l/m 4,8 km/h (1 Bft) SO 4,7 C 5,1 C
21.11.2012 5,2 C 92 % 1017,5 hPa 0,0 l/m 7,2 km/h (2 Bft) SO 4,0 C 3,6 C
22.11.2012 5,5 C 88 % 1022,7 hPa 0,0 l/m 4,4 km/h (1 Bft) W-SW 3,7 C 4,8 C
23.11.2012 4,2 C 92 % 1019,4 hPa 4,1 l/m 3,9 km/h (1 Bft) SO 2,9 C 3,6 C
24.11.2012 5,3 C 94 % 1020,3 hPa 0,5 l/m 5,2 km/h (1 Bft) O-SO 4,5 C 4,5 C
25.11.2012 7,7 C 82 % 1010,6 hPa 1,6 l/m 15,3 km/h (3 Bft) SO 4,7 C 5,3 C
26.11.2012 7,0 C 83 % 1007,4 hPa 2,1 l/m 3,5 km/h (1 Bft) S-SW 4,3 C 6,7 C
27.11.2012 7,1 C 91 % 1006,3 hPa 0,5 l/m 1,6 km/h (1 Bft) S-SW 5,8 C 6,9 C
28.11.2012 5,6 C 93 % 1004,5 hPa 0,5 l/m 1,8 km/h (1 Bft) N-NO 4,6 C 5,6 C
29.11.2012 3,4 C 87 % 999,4 hPa 0,0 l/m 9,3 km/h (2 Bft) N-NO 1,3 C 0,9 C
30.11.2012 0,6 C 88 % 1008,5 hPa 0,5 l/m 6,9 km/h (2 Bft) NW -1,2 C -1,6 C
01.12.2012 1,6 C 90 % 1011,4 hPa 1,0 l/m 7,8 km/h (2 Bft) S-SW 0,2 C 0,0 C
02.12.2012 0,5 C 90 % 1010,2 hPa 0,0 l/m 5,4 km/h (1 Bft) SO -0,9 C -0,9 C
03.12.2012 0,4 C 87 % 1007,9 hPa 1,0 l/m 8,5 km/h (2 Bft) S-SO -1,6 C -2,1 C
04.12.2012 3,7 C 90 % 992,8 hPa 2,1 l/m 10,3 km/h (2 Bft) W-SW 2,1 C 1,1 C
05.12.2012 -2,7 C 83 % 1001,8 hPa 0,0 l/m 4,6 km/h (1 Bft) W-NW -5,2 C -3,5 C
06.12.2012 -4,0 C 87 % 1010,8 hPa 0,0 l/m 3,6 km/h (1 Bft) S-SW -5,9 C -4,9 C
07.12.2012 -6,5 C 87 % 1012,0 hPa 0,5 l/m 1,8 km/h (1 Bft) O-SO -8,3 C -6,5 C
08.12.2012 -5,3 C 88 % 1021,9 hPa 0,0 l/m 1,6 km/h (1 Bft) W -6,9 C -5,3 C
09.12.2012 0,1 C 92 % 1006,1 hPa 0,0 l/m 7,6 km/h (2 Bft) SW -1,1 C -2,4 C
10.12.2012 -0,7 C 91 % 1009,2 hPa 0,0 l/m 2,8 km/h (1 Bft) N-NO -2,0 C -1,5 C
11.12.2012 -2,0 C 85 % 1020,7 hPa 0,0 l/m 9,4 km/h (2 Bft) N-NO -4,2 C -5,1 C
12.12.2012 -3,7 C 90 % 1020,0 hPa 0,0 l/m 2,6 km/h (1 Bft) N-NO -5,1 C -3,7 C
13.12.2012 -3,1 C 90 % 1014,4 hPa 0,0 l/m 6,1 km/h (2 Bft) N-NO -4,6 C -4,9 C
14.12.2012 -1,1 C 87 % 1005,2 hPa 0,0 l/m 9,1 km/h (2 Bft) N-NO -3,0 C -4,2 C
15.12.2012 2,7 C 93 % 1003,0 hPa 1,0 l/m 3,9 km/h (1 Bft) S-SW 1,7 C 2,1 C
16.12.2012 3,6 C 94 % 1005,4 hPa 2,1 l/m 6,7 km/h (2 Bft) S-SW 2,7 C 1,9 C
17.12.2012 2,8 C 95 % 1007,0 hPa 0,5 l/m 1,7 km/h (1 Bft) O-SO 2,0 C 2,8 C
18.12.2012 2,7 C 95 % 1015,3 hPa 2,6 l/m 0,0 km/h (0 Bft) O-SO 1,9 C 2,7 C
19.12.2012 1,9 C 95 % 1025,9 hPa 0,0 l/m 2,5 km/h (1 Bft) O-NO 1,1 C 1,9 C
20.12.2012 1,2 C 92 % 1021,3 hPa 0,0 l/m 8,6 km/h (2 Bft) O-SO 0,1 C -1,3 C
21.12.2012 -2,6 C 85 % 1018,5 hPa 0,0 l/m 5,3 km/h (1 Bft) O-NO -4,8 C -4,1 C
22.12.2012 -2,3 C 90 % 1016,9 hPa 0,0 l/m 10,3 km/h (2 Bft) O-NO -3,7 C -5,7 C
23.12.2012 0,3 C 94 % 1006,2 hPa 1,0 l/m 1,5 km/h (1 Bft) O-NO -0,6 C -0,2 C
24.12.2012 5,8 C 96 % 1004,1 hPa 4,7 l/m 6,5 km/h (2 Bft) W-SW 5,2 C 4,7 C
25.12.2012 7,3 C 87 % 999,5 hPa 0,0 l/m 9,6 km/h (2 Bft) W-SW 5,2 C 5,5 C
26.12.2012 5,5 C 86 % 1005,9 hPa 0,0 l/m 12,1 km/h (2 Bft) W-SW 3,3 C 2,9 C
27.12.2012 6,1 C 84 % 1003,7 hPa 5,2 l/m 9,7 km/h (2 Bft) W-SW 3,6 C 4,3 C
28.12.2012 -0,2 C 83 % 1025,7 hPa 0,0 l/m 9,0 km/h (2 Bft) S-SO -2,7 C -2,7 C
29.12.2012 6,6 C 85 % 1014,8 hPa 0,0 l/m 12,3 km/h (3 Bft) S-SW 4,3 C 4,2 C
30.12.2012 5,8 C 82 % 1012,6 hPa 0,0 l/m 9,0 km/h (2 Bft) SW 2,9 C 3,9 C
31.12.2012 7,7 C 77 % 1009,6 hPa 0,0 l/m 18,3 km/h (3 Bft) W-SW 4,0 C 4,7 C
Min-Datum 06.02.12 26.05.12 05.01.12 166 Tage 01.01.12 - 06.02.12 06.02.12
Min-Zeit 07:57 15:01 15:32 - 00:37 - 07:57 09:17
Minimum -17,2 C 23 % 975,8 hPa - 0,0 km/h (0 Bft) - -20,2 C -22,6 C
Max-Datum 19.08.12 18.12.12 10.02.12 27.10.12 06.11.12 - 20.08.12 19.08.12
Max-Zeit 16:46 06:46 10:57 19:21 22:56 - 16:11 16:46
Maximum 36,8 C 96 % 1045,3 hPa 75,1 l/m 46,4 km/h
W (6 Bft)
- 21,4 C 36,8 C
Durchschnitt 10,3 C 74 % 1016,0 hPa #622,1 l/m 6,6 km/h (2 Bft) W-SW 5,5 C 9,6 C

Durchschnitt Minimum Temp.6,3 C
Durchschnitt Maximum Temp.14,4 C
(c) by David Heller